Regional Weather Roundup
Issued by NWS Cleveland, OH

Home | Current Version | Previous Version | Graphics & Text | Print | Product List | Glossary On
Versions: 1 2 3 4 5 6 7 8 9 10 11 12 13 14 15 16 17 18 19 20 21 22 23 24 25 26 27 28 29 30 31 32 33 34 35 36 37 38 39 40 41 42 43 44 45 46 47 48 49 50
000
ASUS41 KCLE 241602
RWRCLE
OHIO REGIONAL WEATHER ROUNDUP
NATIONAL WEATHER SERVICE CLEVELAND, OH
1200 PM EDT THU APR 24 2014

NOTE: "FAIR" INDICATES FEW OR NO CLOUDS BELOW 12,000 FEET WITH NO
SIGNIFICANT WEATHER AND/OR OBSTRUCTIONS TO VISIBILITY.

OHZ001>008-015>018-024>027-034-035-043-044-241700-
   NORTHWEST OHIO

CITY           SKY/WX    TMP DP  RH WIND       PRES   REMARKS
DEFIANCE       CLOUDY    54  21  27 SE13      30.12F
FINDLAY        CLOUDY    53  19  26 E15       30.11F
TOLEDO EXPRESS CLOUDY    49  16  26 E12       30.14F
TOLEDO EXEC    PTSUNNY   51  19  28 SE13      30.15F
LIMA           CLOUDY    55  21  26 SE14G22   30.10F
$$

OHZ009>014-019>023-028>033-038-089-241700-
   NORTHEAST OHIO

CITY           SKY/WX    TMP DP  RH WIND       PRES   REMARKS
CLE-HOPKINS    PTSUNNY   51  14  22 E9        30.20F
CLE-LAKEFRONT  CLOUDY    47  30  51 N8        30.16F
CUY CO. ARPT   PTSUNNY  N/A N/A N/A E9        30.18F
LORAIN-ELYRIA  CLOUDY    52  16  24 E8        30.17F
ASHTABULA      SUNNY     49  19  30 VRB5      30.18F
AKRON-CANTON   PTSUNNY   50  18  28 SE9       30.16F
WOOSTER        CLOUDY    48  21  34 E7        30.16F
MANSFIELD      MOSUNNY   50  21  32 E13       30.14F
YOUNGSTOWN     PTSUNNY   50  17  27 N8        30.16F
$$

OHZ042-051>053-060>062-070>072-077>081-241700-
  SOUTHWEST OHIO

CITY           SKY/WX    TMP DP  RH WIND       PRES   REMARKS
CINC-COVINGTON PTSUNNY   57  28  33 E12G20    30.08F
CINC-LUNKEN    PTSUNNY   55  26  32 SE7       30.10F
HAMILTON       MOSUNNY   57  26  30 E10       30.10F
DAYTON         CLOUDY    55  19  24 SE16      30.09F
WRIGHT-PAT AFB CLOUDY    54  18  23 E16       30.09F
DAYTON GENERAL PTSUNNY   55  21  26 E15G22    30.08F
WILMINGTON     PTSUNNY   53  16  23 E9G20     30.09F
$$

OHZ036-037-039>041-045>050-054>059-063>069-073>076-082>088-241700-
  CENTRAL AND SOUTHEAST OHIO

CITY           SKY/WX    TMP DP  RH WIND       PRES   REMARKS
COLUMBUS       MOSUNNY   56  15  20 E10       30.12F
OSU AIRPORT    PTSUNNY   54  18  24 E10       30.11F
BOLTON FIELD   MOSUNNY   52  18  25 E9        30.12
RICKENBACK AFB NOT AVBL
NEWARK         MOSUNNY   53  16  23 E12       30.13F
MARION         MOSUNNY   53  20  27 E9        30.13F
LANCASTER      SUNNY     54  20  26 E10G20    30.12F
ZANESVILLE     CLOUDY    52  20  28 E10       30.14F
NEW PHILLY     PTSUNNY   49  17  28 E7        30.17F
$$



USA.gov is the U.S. government's official web portal to all federal, state and local government web resources and services.